#timestamp,LO_Frequency,Hit,StdDev 
1511478015.7,286047003.9,N
1511478035.5,286047003.2,N
1511478055.4,286047007.5,N
1511478075.2,286047007.0,N
1511478095.0,286047009.0,N
1511478095.9,286047009.0,N
1511478115.8,286047007.1,N
1511478135.6,286047007.0,N
1511478155.5,286047006.1,N
1511478175.3,286047008.8,N
1511478195.1,286047007.0,N
1511478215.9,286047005.6,N
1511478235.7,286047002.9,N
1511478255.5,286047005.1,N
1511478275.4,286047004.6,N
1511478295.2,286047004.9,N
1511478315.1,286047003.1,N
1511478316.0,286047003.1,N
1511478335.8,286047005.5,N
1511478355.6,286047007.4,Y
1511478375.5,286047002.1,P
1511478395.3,286047004.2,P
1511478415.2,286047001.4,N
1511478435.9,286046999.7,N
1511478455.7,286047002.1,N
1511478475.6,286047004.2,N
1511478495.4,286047004.1,N
1511478515.2,286047005.5,Y
1511478535.1,286047000.0,P
1511478536.0,286047000.0,N
1511478555.8,286046999.9,N
1511478575.7,286047000.0,N
1511478595.5,286047002.1,N
1511478615.3,286047000.3,N
1511478635.2,286047001.1,N
1511478655.0,286047002.2,N
1511478655.9,286047002.2,N
1511478675.8,286047001.9,N
1511478695.6,286047001.5,N
1511478715.4,286047002.1,N
1511478735.3,286046999.4,N
1511478755.1,286046998.3,N
1511478775.8,286047000.7,N
1511478795.7,286046999.9,N
1511478815.5,286047000.7,N
1511478835.4,286047000.7,N
1511478855.2,286047000.7,N
1511478875.0,286047000.3,N
1511478875.9,286047000.3,N
1511478895.8,286047000.2,N
1511478915.6,286046999.8,N
1511478935.4,286046999.7,N
1511478955.3,286047002.6,N
1511478975.1,286046998.2,N
1511478995.9,286046998.1,N
1511479015.7,286047002.4,N
1511479035.5,286047001.0,N
1511479055.4,286046998.2,N
1511479075.2,286047000.2,N
1511479095.0,286046998.6,N
1511479095.9,286046998.6,N
1511479115.8,286046994.9,Y
1511479135.6,286046995.6,P
1511479155.5,286046995.1,N
1511479175.3,286046994.6,N
1511479195.1,286046993.4,N
1511479215.9,286046995.9,N
1511479235.7,286046993.9,N
1511479255.6,286046994.1,N
1511479275.4,286046995.5,N
1511479295.2,286046997.2,N
1511479315.1,286046998.0,N
1511479316.0,286046998.0,N
1511479335.8,286046998.0,N
1511479355.6,286046995.0,N
1511479375.5,286046997.2,N
1511479395.3,286046999.6,N
1511479415.2,286046996.8,N
1511479435.9,286046994.9,N
1511479455.7,286046998.0,N
1511479475.6,286046997.4,N
1511479495.4,286046996.4,N
1511479515.3,286046993.9,Y
1511479535.1,286047001.2,P
1511479536.0,286047001.2,N
1511479555.8,286047000.0,N
1511479575.7,286047001.0,N
1511479595.5,286047001.1,N
1511479615.3,286046999.3,N
1511479635.2,286046998.6,N
1511479655.0,286047000.7,N
1511479655.9,286047000.7,N
1511479675.8,286047000.8,N
1511479695.6,286047000.0,N
1511479715.4,286047001.8,N
1511479735.3,286047001.1,N
1511479755.1,286046998.2,N
1511479775.8,286047000.9,N
1511479795.7,286046999.3,N
1511479815.5,286046999.3,N
1511479835.4,286046998.0,N
1511479855.2,286046994.9,Y
1511479875.0,286046999.3,P
1511479875.9,286046999.3,N
1511479895.8,286046998.4,P
1511479915.6,286046996.7,Y
1511479935.5,286047002.8,P
1511479955.3,286047002.6,N
1511479975.1,286046998.2,N
1511479995.9,286047000.0,N
1511480015.7,286046998.3,N
1511480035.5,286046998.9,N
1511480055.4,286047000.8,N
1511480075.2,286047000.5,N
1511480095.1,286047001.2,N
1511480096.0,286047001.2,N
1511480115.8,286047002.7,N
1511480135.6,286047001.1,N
1511480155.5,286046999.6,N
1511480175.3,286046993.9,Y
1511480195.1,286046995.2,P
1511480215.9,286046997.0,N
1511480235.7,286046999.1,N
1511480255.6,286046998.4,N
1511480275.4,286046998.6,N
1511480295.2,286046998.7,N
1511480315.1,286047001.1,N
1511480316.0,286047001.1,N
1511480335.8,286046998.1,N
1511480355.7,286046998.2,N
1511480375.5,286046998.2,N
1511480395.3,286046998.6,N
1511480415.2,286046999.6,N
1511480435.0,286046999.3,N
1511480435.9,286046999.3,N
1511480455.8,286046998.9,N
1511480475.6,286046998.9,N
1511480495.4,286047000.2,N
1511480515.3,286047000.2,N
1511480535.1,286046999.7,N
1511480555.8,286047000.2,N
1511480575.7,286047001.3,N
1511480595.5,286047001.4,N
1511480615.4,286046999.8,N
1511480635.2,286047004.4,Y
1511480655.0,286047005.7,P
1511480655.9,286047005.7,N
1511480675.8,286047003.1,N
1511480695.6,286047005.6,N
1511480715.5,286047000.7,N
1511480735.3,286046999.7,N
1511480755.1,286047002.7,N
1511480775.9,286047001.9,N
1511480795.7,286047004.4,N
1511480815.5,286047003.6,N
1511480835.4,286047006.0,N
1511480855.2,286047004.8,N
1511480875.1,286047005.3,N
1511480876.0,286047005.3,N
1511480895.8,286047005.2,N
1511480915.6,286047004.1,N
1511480935.5,286047005.6,N
1511480955.3,286047006.0,N
1511480975.1,286047003.9,N
1511480995.9,286047005.5,N
1511481015.7,286047003.3,N
1511481035.6,286047004.1,N
1511481055.4,286047003.7,N
1511481075.2,286047003.9,N
1511481095.1,286047005.6,N
1511481096.0,286047005.6,Y
1511481115.8,286047000.0,P
1511481135.7,286046998.3,N
1511481155.5,286047000.5,N
1511481175.3,286047000.0,N
1511481195.2,286047001.5,N
1511481215.0,286047002.0,N
1511481215.9,286047002.0,N
1511481235.7,286047002.4,N
1511481255.6,286047002.5,N
1511481275.4,286046999.7,N
1511481295.3,286047000.7,N
1511481315.1,286047000.7,N
1511481316.0,286047000.7,N
1511481335.8,286046997.3,N
1511481355.7,286046995.2,N
1511481375.5,286046995.8,N
1511481395.3,286046995.4,N
1511481415.2,286046997.1,N
1511481435.0,286046999.6,N
1511481435.9,286046999.6,N
1511481455.8,286046996.7,N
1511481475.6,286046998.4,N
1511481495.4,286046998.6,N
1511481515.3,286047001.2,N
1511481535.1,286047000.3,N
1511481555.9,286047001.8,N
1511481575.7,286047002.1,N
1511481625.6,286047001.6,E
